Poiana Brasov, Romania 16 day weather forecast

Slopes altitude range 1030 m - 1780m

Number of lifts: 11 Pistes: 20km

In some cases the lift and piste totals shown are for the ski domain (e.g. Three Valleys) rather than individual resort (e.g. Courchevel)

Overview

The 16 day weather forecast is fully updated 4 times every day.

    • Sun 21 OCT 2018
    • Sun 21
    • 7C 8C
    • Mon 22 OCT 2018
    • Mon 22
    • 6C 11C
    • Tue 23 OCT 2018
    • Tue 23
    • 5C 10C
    • Wed 24 OCT 2018
    • Wed 24
    • 4C 7C
    • Thu 25 OCT 2018
    • Thu 25
    • -3C 2C
    • Fri 26 OCT 2018
    • Fri 26
    • 3C 10C
    • Sat 27 OCT 2018
    • Sat 27
    • 7C 15C
    • Sun 28 OCT 2018
    • Sun 28
    • 11C 22C
    • Mon 29 OCT 2018
    • Mon 29
    • 12C 22C
    • Tue 30 OCT 2018
    • Tue 30
    • 13C 24C
    • Wed 31 OCT 2018
    • Wed 31
    • 12C 22C
    • Thu 01 NOV 2018
    • Thu 01
    • 12C 20C
    • Fri 02 NOV 2018
    • Fri 02
    • 12C 19C
    • Sat 03 NOV 2018
    • Sat 03
    • 10C 18C
    • Sun 04 NOV 2018
    • Sun 04
    • 9C 17C
    • Mon 05 NOV 2018
    • Mon 05
    • 8C 17C

Date:

Time Type 0°C level Temp Chill Snow Cloud Speed Gust Dir Press
3:00 2492m 7°C 7_2 0cm 98% 2mph 1mph 1019mB
6:00 2450m 6°C 6_3 0cm 99% 3mph 4mph 1020mB
9:00 2410m 7°C 7_2 0cm 100% 2mph 3mph 1020mB
12:00 2399m 8°C 8_2 0cm 100% 2mph 3mph 1020mB
15:00 2441m 8°C 8_1 0cm 100% 1mph 1mph 1021mB
18:00 2432m 8°C 8_1 0cm 100% 1mph 2mph 1023mB
21:00 2361m 6°C 6_1 0cm 100% 1mph 2mph 1024mB
0:00 2405m 5°C 5_1 0cm 91% 1mph 2mph 1024mB
3:00 2353m 4°C 4_1 0cm 45% 1mph 1mph 1024mB
6:00 2383m 3°C 3_1 0cm 45% 1mph 1mph 1025mB
9:00 2402m 6°C 6_2 0cm 27% 2mph 2mph 1024mB
12:00 2239m 11°C 11_2 0cm 44% 2mph 3mph 1022mB
15:00 2448m 11°C 11_3 0cm 32% 3mph 4mph 1021mB
18:00 2421m 11°C 11_1 0cm 23% 1mph 2mph 1022mB
21:00 2393m 4°C 4_3 0cm 32% 3mph 4mph 1023mB
0:00 2390m 3°C 3_2 0cm 24% 2mph 3mph 1022mB
3:00 2311m 3°C 3_2 0cm 0% 2mph 3mph 1021mB
6:00 2276m 2°C 2_3 0cm 0% 3mph 3mph 1022mB
9:00 2212m 5°C 5_4 0cm 23% 4mph 5mph 1020mB
12:00 2240m 10°C 10_3 0cm 61% 3mph 5mph 1017mB
15:00 2250m 9°C 9_3 0cm 100% 3mph 4mph 1016mB
18:00 2250m 9°C 9_2 0cm 98% 2mph 2mph 1015mB
21:00 2206m 4°C 4_3 0cm 37% 3mph 3mph 1013mB
0:00 2200m 4°C 4_3 0cm 69% 3mph 4mph 1010mB
3:00 1966m 2°C 2_3 0cm 52% 3mph 5mph 1007mB
6:00 1836m 2°C 2_4 0cm 49% 4mph 20mph 1005mB
9:00 1771m 4°C 4_7 0cm 100% 7mph 21mph 1003mB
12:00 1751m 7°C 7_12 0cm 100% 12mph 31mph 1001mB
15:00 1140m 5°C 5_11 1cm 100% 11mph 24mph 1003mB
18:00 701m 5°C 5_14 2cm 87% 14mph 32mph 1006mB
21:00 495m -4°C -4_11 0cm 0% 11mph 27mph 1009mB
0:00 527m -4°C -4_10 0cm 20% 10mph 25mph 1009mB
3:00 497m -4°C -4_12 0cm 56% 12mph 27mph 1010mB
6:00 704m -4°C -4_13 0cm 31% 13mph 27mph 1011mB
9:00 1152m -3°C -3_12 0cm 1% 12mph 23mph 1012mB
12:00 1204m 2°C 2_11 0cm 1% 11mph 21mph 1011mB
15:00 1146m 2°C 2_5 0cm 6% 5mph 17mph 1012mB
18:00 840m 2°C 2_4 0cm 18% 4mph 6mph 1013mB
21:00 1080m -2°C -2_4 0cm 17% 4mph 6mph 1012mB
0:00 1693m -2°C -2_9 0cm 59% 9mph 24mph 1012mB
3:00 1522m 2°C 2_8 0cm 94% 8mph 21mph 1013mB
6:00 1490m 1°C 1_5 0cm 72% 5mph 15mph 1015mB
9:00 1780m 3°C 3_5 0cm 7% 5mph 9mph 1016mB
12:00 2015m 10°C 10_3 0cm 4% 3mph 5mph 1015mB
15:00 2186m 10°C 10_1 0cm 0% 1mph 1mph 1015mB
18:00 3062m 10°C 10_4 0cm 17% 4mph 5mph 1016mB
21:00 3020m 2°C 2_6 0cm 13% 6mph 7mph 1016mB
0:00 2957m 2°C 2_6 0cm 7% 6mph 7mph 1016mB
3:00 2981m 4°C 4_7 0cm 98% 7mph 8mph 1015mB
6:00 3002m 4°C 4_7 0cm 98% 7mph 10mph 1015mB
9:00 3146m 7°C 7_8 0cm 90% 8mph 16mph 1014mB
12:00 3341m 15°C 15_7 0cm 80% 7mph 11mph 1012mB
15:00 3526m 15°C 15_7 0cm 73% 7mph 12mph 1013mB
18:00 3684m 15°C 15_8 0cm 54% 8mph 17mph 1014mB
21:00 3595m 8°C 8_8 0cm 1% 8mph 13mph 1015mB
0:00 3572m 8°C 8_8 0cm 2% 8mph 9mph 1015mB
3:00 3527m 8°C 8_7 0cm 52% 7mph 8mph 1015mB
6:00 3538m 8°C 8_7 0cm 75% 7mph 13mph 1016mB
9:00 3625m 11°C 11_6 0cm 45% 6mph 11mph 1015mB
12:00 3724m 22°C 22_10 0cm 58% 10mph 17mph 1013mB
15:00 3685m 22°C 22_5 0cm 49% 5mph 7mph 1014mB
18:00 3720m 22°C 22_3 0cm 73% 3mph 4mph 1015mB
21:00 3714m 9°C 9_2 0cm 100% 2mph 2mph 1017mB
0:00 3662m 8°C 8_2 0cm 100% 2mph 2mph 1017mB
3:00 3509m 9°C 9_3 0cm 78% 3mph 3mph 1017mB
6:00 3550m 9°C 9_2 0cm 78% 2mph 3mph 1018mB
9:00 3695m 12°C 12_3 0cm 72% 3mph 6mph 1018mB
12:00 3747m 22°C 22_6 0cm 79% 6mph 10mph 1016mB
15:00 3763m 22°C 22_4 0cm 91% 4mph 5mph 1016mB
18:00 3656m 22°C 22_3 0cm 96% 3mph 4mph 1017mB
21:00 3676m 11°C 11_2 0cm 100% 2mph 2mph 1017mB
0:00 3724m 11°C 11_2 0cm 95% 2mph 2mph 1017mB
3:00 3744m 10°C 10_2 0cm 74% 2mph 3mph 1017mB
6:00 3690m 10°C 10_2 0cm 83% 2mph 3mph 1018mB
9:00 3751m 13°C 13_3 0cm 99% 3mph 5mph 1017mB
12:00 3850m 24°C 24_5 0cm 99% 5mph 8mph 1016mB
15:00 3900m 24°C 24_5 0cm 100% 5mph 6mph 1016mB
18:00 3944m 24°C 24_4 0cm 99% 4mph 5mph 1017mB
Morning 0.00520833mm 0 4144m 11°C 11_4 0cm 80% 4mph 6mph 1016mB
Afternoon 0.109375mm 0 4150m 22°C 22_5 0cm 73% 5mph 6mph 1017mB
Morning 0mm 0 3647m 10°C 10_3 0cm 92% 3mph 4mph 1019mB
Afternoon 0mm 0 3589m 20°C 20_1 0cm 98% 1mph 2mph 1021mB
Morning 0mm 0 3432m 10°C 10_1 0cm 88% 1mph 2mph 1022mB
Afternoon 0.015625mm 0 3154m 19°C 19_2 0cm 76% 2mph 3mph 1022mB
Morning 0.00520833mm 0 2947m 9°C 9_2 0cm 64% 2mph 3mph 1023mB
Afternoon 0mm 0.75 2894m 18°C 18_3 0cm 28% 3mph 3mph 1023mB
Morning 0mm 0 2904m 7°C 7_0 0cm 0% 0mph 1mph 1023mB
Afternoon 0.322917mm 0 3198m 17°C 17_4 0cm 1% 4mph 5mph 1020mB
Morning 0.510417mm 0 3153m 6°C 6_2 0cm 0% 2mph 3mph 1020mB
Afternoon 0.00520833mm 0 3145m 17°C 17_2 0cm 0% 2mph 3mph 1020mB

16 day outlook at a glance

Forecast issued: 21/10/2018 03:59:12

Chat

Your comments and questions. In a resort? Let us know what it's like!


Characters left 250

For terms and conditions see Readers Comments on the Cookie and privacy policy page.